Location: Marsån
(66.4167°N, 22.2833°E)
Time: 07:59:31
(UTC+00:00)

Cosmos 1464 Rocket - Pass Details

Date: 24 February 2024
Orbit: 952 x 1000 km, 82.9° (Epoch: 21 April)

Event Time Altitude Azimuth Distance (km) Brightness Sun altitude
Rises 16:49:09 0° 160° (SSE) 3,662 6.8 -9.2°
Reaches altitude 10° 16:51:48 10° 153° (SSE) 2,711 6.1 -9.4°
Maximum altitude 16:57:28 39° 86° (E) 1,407 4.4 -10.0°
Drops below altitude 10° 17:03:07 10° 20° (NNE) 2,702 6.1 -10.6°
Sets 17:05:45 0° 14° (NNE) 3,648 6.9 -10.8°
